Hourly Data Report for October 02, 2013

All times are specified in Local Standard Time (LST). Add 1 hour to adjust for Daylight Saving Time where and when it is observed.

PETAWAWA AWOS 2
ONTARIO

45°57'00.000" N
77°19'00.000" W
130.10 m
6106396
71625
YWA

Related Data

No related data is available for this station

Download Data

Hourly Data (October 2013)
Hourly Data Report for October 2, 2013
Temp Definition
°C
Dew Point Temp Definition
°C
Rel Hum Definition
%
Wind Dir Definition
10's deg

Wind Spd Definition
km/h
Visibility Definition
km
Stn Press Definition
kPa
Hmdx Definition


Wind Chill Definition


Weather Definition


TIME
00:00 12.7 12.0 96   0 15.0 99.31      
01:00 11.4 11.0 97   0 15.0 99.31      
02:00 10.4 10.3 99   0 8.0 99.33      
03:00 10.1 10.1 100 16 4 6.4 99.33      
04:00 10.4 10.4 100   0 11.3 99.37      
05:00 10.6 10.2 97   0 11.3 99.42      
06:00 10.7 10.6 99   0 8.0 99.48      
07:00 9.8 9.8 100   0 0.3 99.54      
08:00 14.7 14.3 97   0 15.0 99.61      
09:00 19.4 12.6 65 26 13 15.0 99.65      
10:00 20.5 8.3 45 27 13 15.0 99.65      
11:00 21.2 7.0 40 26 17 15.0 99.64      
12:00 22.1 5.1 33 25 20 15.0 99.63      
13:00 22.7 4.3 30 27 24 15.0 99.60      
14:00 23.4 4.1 28 27 22 15.0 99.61      
15:00 23.4 2.9 26 26 22 15.0 99.61      
16:00 23.0 3.1 27 27 19 15.0 99.62      
17:00 22.3 3.1 28 27 13 15.0 99.66      
18:00 18.7 5.0 40   0 15.0 99.76      
19:00 17.6 5.4 45 27 9 15.0 99.84      
20:00 15.8 6.1 52   0 15.0 99.90      
21:00 12.2 6.9 70 26 4 15.0 99.97      
22:00 14.5 6.8 60 16 4 15.0 100.00      
23:00 9.4 7.0 85   0 15.0 100.07      

Notes on Data Quality.

Legend

  • E = Estimated
  • M = Missing
  • NA = Not Available
  • ‡ = Partner data that is not subject to review by the National Climate Archives
Date modified: